Location: Izdebno
(52.6670°N, 16.2170°E)
Time: 03:18:11
(UTC+02:00)

SR - Pass Details

Date: 26 February 2024
Orbit: 577 x 862 km, 66.7° (Epoch: 22 April)

Event Time Altitude Azimuth Distance (km) Brightness Sun altitude
Rises 23:45:09 0° 317° (NW) 3,242 ? -45.7°
Enters shadow 23:46:21 - 315° (NW) 2,789 ? -45.7°
Reaches altitude 10° 23:47:46 10° 310° (NW) 2,263 - -45.8°
Maximum altitude 23:52:31 39° 243° (WSW) 1,045 - -45.8°
Drops below altitude 10° 23:56:53 10° 175° (S) 2,073 - -45.9°
Sets 23:59:11 0° 167° (SSE) 2,937 - -45.9°
